Regional Weather Roundup
Issued by NWS

Home | Current Version | Previous Version | Text Only | Print | Product List | Glossary Off
Versions: 1 2 3 4 5 6 7 8 9 10 11 12 13 14 15 16 17 18 19 20 21 22 23 24 25 26 27 28 29 30 31 32 33 34 35 36 37 38 39 40 41 42 43 44 45 46 47 48 49 50

000
ASUS43 KLOT 270608
RWRIL

ILLINOIS REGIONAL WEATHER ROUNDUP
NATIONAL WEATHER SERVICE CHICAGO/ROMEOVILLE IL
100 AM CDT MON MAR 27 2017

NOTE: "FAIR" INDICATES FEW OR NO CLOUDS BELOW 12,000 FEET WITH NO
SIGNIFICANT WEATHER AND/OR OBSTRUCTIONS TO VISIBILITY.

* THESE STATIONS ARE NOT UNDER NWS QUALITY CONTROL. THEY ALSO MAY NOT
  REPORT WEATHER SUCH AS PRECIPITATION OR FOG.

ILZ001-002-007-009-015-016-024-270700-
NORTHWEST ILLINOIS

CITY           SKY/WX    TMP DP  RH WIND       PRES   REMARKS
MOLINE         CLOUDY    49  45  86 W7        29.93R
6HR MIN TEMP:  49; 6HR MAX TEMP:  51;

STERLING*      CLOUDY    48  47  96 W8        29.91S
SAVANNA*       CLOUDY    47  46  95 CALM      29.91S
$$

ILZ003-004-008-010-011-017-018-270700-
NORTH CENTRAL ILLINOIS

CITY           SKY/WX    TMP DP  RH WIND       PRES   REMARKS
ROCKFORD       DRIZZLE   47  46  97 N5        29.90F FOG
6HR MIN TEMP:  47; 6HR MAX TEMP:  54; 6HR PCP:  0.04;

FREEPORT*      CLOUDY    44  44  98 NW5       29.92R FOG
ROCHELLE*      CLOUDY    48  48  99 W6        29.89F FOG
DE KALB*       CLOUDY    50  49  99 W9        29.89S FOG
PERU*          CLOUDY    48  47  94 W9        29.91F FOG
$$

ILZ005-006-012>014-019>023-270700-
NORTHEAST ILLINOIS

CITY           SKY/WX    TMP DP  RH WIND       PRES   REMARKS
CHICAGO-OHARE  DRIZZLE   52  50  93 SW10      29.87S FOG
6HR MIN TEMP:  52; 6HR MAX TEMP:  57; 6HR PCP: TRACE;

CHICAGO-MIDWAY CLOUDY    51  50  96 SW13      29.88S FOG
6HR MIN TEMP:  51; 6HR MAX TEMP:  56; 6HR PCP: TRACE;

AURORA         CLOUDY    51  49  92 SW8       29.89S FOG
6HR MIN TEMP:  51; 6HR MAX TEMP:  54; 6HR PCP:  0.01;

LANSING*       CLOUDY    50  50 100 SW8       29.90S FOG
JOLIET*        CLOUDY    51  51  99 SW8       29.90F FOG
WAUKEGAN       CLOUDY    44  44 100 CALM      29.86S FOG
6HR MIN TEMP:  42; 6HR MAX TEMP:  45; 6HR PCP:  0.01;

DUPAGE AIRPORT CLOUDY    50  50 100 SW9       29.87F FOG
6HR MIN TEMP:  50; 6HR MAX TEMP:  54; 6HR PCP: TRACE;

KANKAKEE*      CLOUDY    49  48  96 SW8       29.92S FOG
WHEELING       CLOUDY    51  51 100 SW8       29.87F
6HR MIN TEMP:  51; 6HR MAX TEMP:  56;

MORRIS*        CLOUDY    50  48  95 CALM      29.90S FOG
ROMEOVILLE*    CLOUDY    49  49 100 W9        29.89S FOG
$$

LMZ740>746-270700-
SOUTHERN LAKE MICHIGAN

STATION/POSITION SKY/WX   TEMP    WIND        PRES    VSBY  WAVE
                          AIR SEA DIR/SP/G                  HT/PER
                          (F)     (DEG/KT/KT) (MB)    (MI)  (FT/S)
HARRISON CRIB              52     240/ 10/ 12   N/A
BURNHAM HARBOR             51     240/  4/  9   N/A
CALUMET HARBOR             50     230/  9/ 12 1011.6R
BURNS HARBOR               52     220/  8/ 12 1012.5S
MICHIGAN CITY              45     230/ 10/ 11   N/A
$$

ILZ025>027-034>036-040-047-049-050-058-095>099-270700-
WEST-CENTRAL ILLINOIS

CITY           SKY/WX    TMP DP  RH WIND       PRES   REMARKS
QUINCY         CLOUDY    47  45  93 CALM      29.94R
GALESBURG*     CLOUDY    47  46  95 W6        29.93R
MACOMB*        CLOUDY    47  47 100 W6        29.96F
JACKSONVILLE*  CLOUDY    47  46  95 CALM      29.95S FOG
PITTSFIELD*    CLOUDY    47  46  97 CALM      29.96S
$$

ILZ028>032-037-038-041>044-048-051>054-059>061-270700-
CENTRAL ILLINOIS

CITY           SKY/WX    TMP DP  RH WIND       PRES   REMARKS
PONTIAC        CLOUDY    50  49  98 W6        29.92F
BLOOMINGTON    CLOUDY    48  47  96 W9        29.94S FOG
DECATUR        CLOUDY    47  44  90 CALM      29.94F
PEORIA         CLOUDY    49  48  97 SW8       29.94S FOG
6HR MIN TEMP:  49; 6HR MAX TEMP:  51;

LACON*         CLOUDY    49  48  98 W7        29.92S
LINCOLN*       CLEAR     47  47 100 CALM      29.94R FOG
SPRINGFIELD    CLOUDY    47  45  93 CALM      29.95R
6HR MIN TEMP:  47; 6HR MAX TEMP:  55;

TAYLORVILLE    CLOUDY    45  45 100 CALM      29.95S FOG
$$

ILZ033-039-045-046-055>057-062-063-270700-
EAST-CENTRAL ILLINOIS

CITY           SKY/WX    TMP DP  RH WIND       PRES   REMARKS
CHAMPAIGN      PTCLDY    46  43  89 SW7       29.93F
RANTOUL*       PTCLDY    51  50  95 W5        29.93F FOG
MATTOON        CLOUDY    51  49  92 SW3       29.93F
PARIS*         CLOUDY    50  48  93 SW6       29.95F
$$

ILZ079-100>102-270700-
SOUTHWEST ILLINOIS

CITY           SKY/WX    TMP DP  RH WIND       PRES   REMARKS
ALTON          PTCLDY    47  46  97 CALM      29.96R
BELLEVILLE     MOCLDY    48  48 100 NE3       29.92F
CAHOKIA*       CLOUDY    50  47  89 CALM      29.92F
SPARTA*        CLOUDY    53  47  81 SE5       29.95F
$$

ILZ064>066-069>071-074>076-080>082-084>086-088>090-092>094-270700-
SOUTH-CENTRAL ILLINOIS

CITY           SKY/WX    TMP DP  RH WIND       PRES   REMARKS
CARBONDALE     PTCLDY    49  47  93 CALM      29.94S
6HR MIN TEMP:  49; 6HR MAX TEMP:  58;

CAIRO*         MOCLDY    51  50  96 CALM      29.95S
EFFINGHAM*     CLEAR     49  48  99 CALM      29.96S
MARION         MOCLDY    52  52 100 CALM      29.96S
MT. VERNON     CLOUDY    45  44  97 CALM      29.96R
CENTRALIA*     CLOUDY    51  48  91 CALM      29.95R
SALEM*         CLOUDY    49  47  93 CALM      29.95R FOG
METROPOLIS*    MOCLDY    49  48  97 CALM      29.96S
$$

ILZ067-068-072-073-078-083-087-091-270700-
SOUTHEAST ILLINOIS

CITY           SKY/WX    TMP DP  RH WIND       PRES   REMARKS
LAWRENCEVILLE  CLEAR     47  46  97 CALM      29.96F
FLORA*         CLEAR     47  46  95 CALM      29.96S
FAIRFIELD*     CLOUDY    48  46  93 CALM      29.95R
HARRISBURG*    CLOUDY    48  47  94 CALM      29.96S
ROBINSON*      CLEAR     44  44 100 CALM      29.96F FOG
CARMI*         MOCLDY    46  45  98 SE3       29.95F
$$

ABBREVIATIONS USED IN REMARKS
   TC - TEMPERATURE IN CELSIUS
  WCI - WIND CHILL INDEX
   HX - HEAT INDEX
  VSB - VISIBILITY
$$





USA.gov is the U.S. government's official web portal to all federal, state and local government web resources and services.